Regional Weather Roundup
Issued by NWS

Home | Current Version | Previous Version | Graphics & Text | Print | Product List | Glossary On
Versions: 1 2 3 4 5 6 7 8 9 10 11 12 13 14 15 16 17 18 19 20 21 22 23 24 25 26 27 28 29 30 31 32 33 34 35 36 37 38 39 40 41 42 43 44 45 46 47 48 49 50
000
ASUS43 KOAX 102202
RWRNE

WEATHER ROUNDUP FOR NEBRASKA
NATIONAL WEATHER SERVICE OMAHA NE
400 PM CST SAT DEC 10 2016

NOTES: SATELLITE DATA IS BEING USED TO AUGMENT CLOUD COVER ABOVE
       12000 FEET.
       "FAIR" INDICATES FEW OR NO CLOUDS BELOW 12,000 FEET WITH NO
       SIGNIFICANT WEATHER AND/OR OBSTRUCTIONS TO VISIBILITY.

  * THESE STATIONS DO NOT REPORT WEATHER SUCH AS RAIN...SNOW OR FOG.

NEZ001>004-019>022-054>056-102300-
NEBRASKA PANHANDLE

CITY           SKY/WX    TMP DP  RH WIND       PRES   REMARKS
SCOTTSBLUFF    CLOUDY    29  19  66 SE5       29.71S WCI  24
ALLIANCE       CLOUDY    30  22  72 S9        29.69F WCI  22
CHADRON        CLOUDY    16   8  71 N6        29.74S WCI   7
SIDNEY         CLOUDY    32  24  72 S13       29.72F WCI  22
$$

NEZ057>060-069>072-079>082-102300-
SOUTHWEST NEBRASKA

CITY           SKY/WX    TMP DP  RH WIND       PRES   REMARKS
NORTH PLATTE   CLOUDY    29  21  72 S12       29.83F WCI  19
IMPERIAL       CLOUDY    29  22  75 SE13      29.80F WCI  19
MCCOOK         CLOUDY    34  25  69 SE10      29.84F WCI  26
$$

NEZ005>010-023>029-035>040-094-102300-
NORTH CENTRAL NEBRASKA

CITY           SKY/WX    TMP DP  RH WIND       PRES   REMARKS
VALENTINE      CLOUDY    18  13  80 NE7       29.80F WCI   9
AINSWORTH      CLOUDY    27  22  80 SE8       29.81F WCI  19
BROKEN BOW     CLOUDY    30  20  66 S18G25    29.86F WCI  18
ORD            CLOUDY    31  18  58 S12       29.89F WCI  22
$$

NEZ041-046>049-061>064-073>077-083>087-102300-
SOUTH CENTRAL NEBRASKA

CITY           SKY/WX    TMP DP  RH WIND       PRES   REMARKS
GRAND ISLAND   CLOUDY    31  20  63 S16       29.94F WCI  20
AURORA         CLOUDY    32  19  57 S13       29.96S WCI  22
HASTINGS       CLOUDY    33  19  56 S15G22    29.94F WCI  23
KEARNEY *      CLOUDY    32  18  55 S18G24    29.91S WCI  20
YORK           CLOUDY    32  18  55 S15       29.99R WCI  22
$$

NEZ011>018-030>034-042>045-102300-
NORTHEAST NEBRASKA

CITY           SKY/WX    TMP DP  RH WIND       PRES   REMARKS
BLAIR          CLOUDY    29  19  65 SE13G20   30.06F WCI  19
FREMONT        CLOUDY    29  19  65 SE16      30.05F WCI  17
TEKAMAH        CLOUDY    27  20  75 E15       30.09F WCI  15
$$

NEZ050>053-065>068-078-088>093-102300-
SOUTHEAST NEBRASKA

CITY           SKY/WX    TMP DP  RH WIND       PRES   REMARKS
LINCOLN        CLOUDY    33  16  49 SE13G21   30.05F WCI  24
OMAHA EPPLEY   CLOUDY    31  15  52 SE14      30.10F WCI  21
BEATRICE       CLOUDY    34  19  53 SE13G18   30.03F WCI  25
FALLS CITY     CLOUDY    34  18  52 SE14G21   30.11F WCI  25
NEBRASKA CITY  CLOUDY    32  12  44 SE13      30.08F WCI  22
$$

NEZ044-045-051>053-067-102300-
OMAHA AREA

CITY           SKY/WX    TMP DP  RH WIND       PRES   REMARKS
OMAHA EPPLEY   CLOUDY    31  15  52 SE14      30.10F WCI  21
BLAIR          CLOUDY    29  19  65 SE13G20   30.06F WCI  19
FREMONT        CLOUDY    29  19  65 SE16      30.05F WCI  17
$$



USA.gov is the U.S. government's official web portal to all federal, state and local government web resources and services.